Regional Weather Roundup
Issued by NWS Upton, NY

Current Version | Previous Version | Graphics & Text | Print | Product List | Glossary Off
Versions: 1 2 3 4 5 6 7 8 9 10 11 12 13 14 15 16 17 18 19 20 21 22 23 24 25 26 27 28 29 30 31 32 33 34 35 36 37 38 39 40 41 42 43 44 45 46 47 48 49 50

000
ASUS41 KOKX 010404
RWROKX

REGIONAL WEATHER ROUNDUP
NATIONAL WEATHER SERVICE NEW YORK NY
1200 AM EDT SAT OCT 01 2016

NOTE: "FAIR" INDICATES FEW OR NO CLOUDS BELOW 12,000 FEET WITH NO
SIGNIFICANT WEATHER AND/OR OBSTRUCTIONS TO VISIBILITY.

NYZ071-072-176-178-NJZ106-104-010500-
NEW YORK CITY METRO AREA

CITY           SKY/WX    TMP DP  RH WIND       PRES   REMARKS
Central Park   CLOUDY    56  54  93 NE10G18   30.26F
LaGuardia APRT DRIZZLE   58  55  90 NE14      30.23F
Kennedy INTL   DRIZZLE   59  56  89 NE16      30.23F
Newark/Liberty DRIZZLE   57  55  93 NE14      30.23F
Bronx Bot Gard   N/A     54  52  94 N2        30.26F
Wall St Helipt CLOUDY    61  57  88 NE17G24   30.22F
Teterboro      LGT RAIN  57  54  89 N7        30.24F
$$

NYZ177-179-078>081-010500-
LONG ISLAND NEW YORK

CITY           SKY/WX    TMP DP  RH WIND       PRES   REMARKS
Farmingdale    CLOUDY    59  57  93 NE12      30.23F
MacArthur/ISP  CLOUDY    58  57  97 NE15      30.23F FOG
Shirley        CLOUDY    58  57  97 NE8G17    30.24S
Riverhead      NOT AVBL
Westhampton    LGT RAIN  60  57  89 NE17G26   30.24F
Southampton      N/A     59  59 100 NE7       30.20S
Bridgehampton    N/A     59  57  94 E6        30.08F
East Hampton   LGT RAIN  59  58  96 NE13G26   30.23F
Montauk          N/A     61  60  97 NE14G24   30.24F
$$

NYZ052-065-067-010500-
HUDSON VALLEY

CITY           SKY/WX    TMP DP  RH WIND       PRES   REMARKS
White Plains   CLOUDY    54  52  93 NE8       30.25F
Newburgh       CLOUDY    52  52 100 NE9       30.30F FOG
Montgomery     LGT RAIN  53  52  96 NE12      30.29F FOG
Poughkeepsie   CLOUDY    52  51  97 N7        30.29F FOG
Albany         CLOUDY    52  48  86 N6        30.36F
$$

NJZ001-105-106-008-010-013-015-019>022-104-010500-
NEW JERSEY

CITY           SKY/WX    TMP DP  RH WIND       PRES   REMARKS
Newark/Liberty DRIZZLE   57  55  93 NE14      30.23F
Teterboro      LGT RAIN  57  54  89 N7        30.24F
Caldwell       CLOUDY    56  53  90 NE7       30.25F
Morristown     CLOUDY    55  55 100 NE7       30.25F
Somerville     CLOUDY    57  53  86 VRB5G16   30.22F
Linden         NOT AVBL
Sussex         CLOUDY    53  53 100 NE10      30.27F FOG
Abdover          N/A     54  53  97 NE6       30.26F
Trenton        CLOUDY    57  55  93 NE8       30.21S
Millville      CLOUDY    64  63  96 NE12      30.16S
Atlantic City  CLOUDY    63  61  93 NE18G25   30.15S
Wrightstown    NOT AVBL
Toms River     LGT RAIN  62  61  96 NE15      30.19F FOG
Belmar         LGT RAIN  60  59  96 NE12G22   30.21S FOG
$$

PAZ047>061-062-071-010500-
EASTERN PENNSYLVANIA

CITY           SKY/WX    TMP DP  RH WIND       PRES   REMARKS
Philadelphia   CLOUDY    61  57  87 NE13      30.20S
Allentown      CLOUDY    56  53  90 NE13      30.23F
Scranton       CLOUDY    55  51  86 NE8       30.24F
$$

CTZ002-004>006-009-010-012-RIZ004-006-007-MAZ004-011-015-010500-
SOUTHERN NEW ENGLAND
 IN CT

CITY           SKY/WX    TMP DP  RH WIND       PRES   REMARKS
Bradley INTL   CLOUDY    51  49  92 N13       30.32F FOG
Hartford       LGT RAIN  52  52 100 N12       30.31S FOG
Danbury        CLOUDY    52  51  97 NE8       30.29S FOG
Wtrbury/Oxford NOT AVBL
Bridgeport     CLOUDY    57  52  83 NE14      30.26F
Meriden        LGT RAIN  54  50  86 N10G17    30.29F FOG
New Haven      CLOUDY    54  52  93 N13       30.27F
Chester        DRIZZLE   55  54  94 N9        30.27F
Groton         LGT RAIN  60  56  86 NE13      30.25S FOG
Wilimantic     CLOUDY    56  54  93 NE8       30.30F

 IN RI

CITY           SKY/WX    TMP DP  RH WIND       PRES   REMARKS
Providence     RAIN      57  55  93 NE14      30.30F FOG
Block Island   LGT RAIN  60  59  96 NE20G28   30.24F
Westerly       LGT RAIN  59  55  87 NE8G17    30.26S FOG
 IN MA

CITY           SKY/WX    TMP DP  RH WIND       PRES   REMARKS
Boston         LGT RAIN  58  57  97 NE18      30.35F
Worcester      LGT RAIN  50  48  93 NE15G24   30.33F FOG
Westfield      LGT RAIN  50  49  96 N14       30.34F
Provincetown   LGT RAIN  58  57  97 E13       30.34S FOG
Nantucket      CLOUDY    60  59  96 E20G28    30.25S FOG
$$

ANZ330-335-338-340-345-350-353-355-010500-
COASTAL MARINE OBSERVATIONS


STATION/POSITION TIME  SKY/WX   TEMP    WIND        PRES    VSBY  WAVE
                                AIR SEA DIR/SP/G                  HT/PER
                 (UTC)          (F)     (DEG/KT/KT) (MB)    (MI)  (FT/S)
NY HARB ENTRANCE 0250            63 68   50/ 25/ 29 1022.0          9/ 9
20S FIRE ISLAND  0250            63 67   50/ 27/ 33 1021.0         12/ 9
GREAT SOUTH BAY  0315            60 63   40/ 17/ 19   N/A
23 SSW MONTAUK P 0250            62 65   60/ 29/ 37 1022.1         11/ 9
15 E BARNEGAT LI 0300               69                N/A          11/10
HUDSON CANYON    0250            70 70              1019.6         10/10
KINGS POINT      0330            58 69              1023.8
EXECUTION ROCKS  0345            59      40/ 17/ 23   N/A
CENTRAL LI SOUND NOT AVBL
EASTERN LI SOUND NOT AVBL
ROBBINS REEF     0330            58      50/ 16/ 20 1023.8
$$


>>>>>>>>>>>>>>>>>>>>>>>>>>>> KEY <<<<<<<<<<<<<<<<<<<<<<<<<<<
>                                                          <
>     SKY/WX - Sky Condition/Present Weather               <
>     TMP    - Temperature in Fahrenheit                   <
>     DP     - Dew Point in Fahrenheit                     <
>     RH     - Relative Humidity in Percent                <
>     WIND   - Direction (from) and Speed in MPH           <
>     PRES   - Mean Sea Level Pressure (inches of Hg)      <
>     WCI    - Wind Chill Index                            <
>     VSB    - VISIBILITY IN MILES                         <
>     HX     - HEAT INDEX                                  <
>     TC     - TEMPERATURE IN CELSIUS                      <
>     VRB    - VARIABLE WIND DIRECTION                     <
>                                                          <
>>>>>>>>>>>>>>>>>>>>>>>>>>>> KEY <<<<<<<<<<<<<<<<<<<<<<<<<<<




USA.gov is the U.S. government's official web portal to all federal, state and local government web resources and services.